Location: Hurstbourne Priors
(51.2000°N, 1.3667°W)
Time: 22:51:28
(UTC+00:00)

Altair - Pass Details

Date: 19 April 2021
Orbit: 1501 x 1683 km, 47.2° (Epoch: 13 May)

Event Time Altitude Azimuth Distance (km) Brightness Sun altitude
Rises 07:25:12 0° 244° (WSW) 4,854 9.7 21.4°
Reaches altitude 10° 07:28:24 10° 241° (WSW) 3,846 9.2 21.9°
Maximum altitude 07:37:59 63° 164° (SSE) 1,728 8.4 23.3°
Drops below altitude 10° 07:47:12 10° 86° (E) 3,711 11.1 24.7°
Sets 07:50:13 0° 84° (E) 4,676 11.2 25.2°
